When you browse on this site, cookies collect data to enhance your experience and personalize the content and advertising you see.
Visit our Privacy Policy to learn more. By continuing to use the site, you agree to this use of cookies and data.
  • In Hungary
  • List of Countries
  • For 7 days
  • Water Temperature
  • Weather Map
  • News
  • Weather Widgets
  • user-avatar
    Login

    Hourly Weather Kulan

    Today, 8 December, Sunday

    Time Temperature Precipitation Wind Pressure Humidity
    00:00 +4°C° 0 mm 2 mps 696 mmHg 59%
    01:00 +4°C° 0 mm 2 mps 695 mmHg 58%
    02:00 +4°C° 0 mm 2 mps 695 mmHg 56%
    03:00 +4°C° 0 mm 2 mps 695 mmHg 55%
    04:00 +4°C° 0 mm 2 mps 694 mmHg 53%
    05:00 +4°C° 0 mm 2 mps 694 mmHg 52%
    06:00 +4°C° 0 mm 2 mps 694 mmHg 51%
    07:00 +4°C° 0 mm 2 mps 694 mmHg 50%
    08:00 +4°C° 0 mm 2 mps 694 mmHg 50%
    09:00 +6°C° 0 mm 2 mps 694 mmHg 50%
    10:00 +7°C° 0 mm 2 mps 694 mmHg 51%
    11:00 +9°C° 0 mm 2 mps 694 mmHg 52%
    12:00 +9°C° 0 mm 2 mps 694 mmHg 52%
    13:00 +9°C° 0 mm 2 mps 693 mmHg 52%
    14:00 +10°C° 0 mm 2 mps 693 mmHg 52%
    15:00 +8°C° 0 mm 2 mps 692 mmHg 55%
    16:00 +7°C° 0 mm 2 mps 691 mmHg 58%
    17:00 +4°C° 0 mm 3 mps 691 mmHg 61%
    18:00 +4°C° 0 mm 3 mps 691 mmHg 59%
    19:00 +4°C° 0 mm 3 mps 690 mmHg 57%
    20:00 +4°C° 0 mm 3 mps 690 mmHg 55%
    21:00 +4°C° 0 mm 3 mps 690 mmHg 55%
    22:00 +4°C° 0 mm 3 mps 689 mmHg 54%
    23:00 +5°C° 0 mm 2 mps 689 mmHg 54%

    Tomorrow, 9 December, Monday

    Time Temperature Precipitation Wind Pressure Humidity
    00:00 +5°C° 0 mm 2 mps 689 mmHg 52%
    01:00 +5°C° 0 mm 2 mps 688 mmHg 51%
    02:00 +5°C° 0 mm 2 mps 688 mmHg 49%
    03:00 +5°C° 0 mm 2 mps 688 mmHg 48%
    04:00 +5°C° 0 mm 2 mps 687 mmHg 46%
    05:00 +5°C° 0 mm 2 mps 687 mmHg 45%
    06:00 +5°C° 0 mm 2 mps 687 mmHg 43%
    07:00 +6°C° 0 mm 1 mps 687 mmHg 41%
    08:00 +6°C° 0 mm 1 mps 687 mmHg 39%
    09:00 +8°C° 0 mm 1 mps 687 mmHg 38%
    10:00 +10°C° 0 mm 1 mps 688 mmHg 37%
    11:00 +11°C° 0 mm 0 mps 688 mmHg 36%
    12:00 +11°C° 0 mm 0 mps 688 mmHg 36%
    13:00 +11°C° 0 mm 0 mps 687 mmHg 37%
    14:00 +12°C° 0 mm 0 mps 687 mmHg 38%
    15:00 +10°C° 0 mm 0 mps 687 mmHg 39%
    16:00 +9°C° 0 mm 0 mps 687 mmHg 41%
    17:00 +8°C° 0 mm 0 mps 686 mmHg 42%
    18:00 +9°C° 0 mm 1 mps 687 mmHg 41%
    19:00 +9°C° 0 mm 1 mps 687 mmHg 40%
    20:00 +8°C° 0 mm 1 mps 687 mmHg 39%
    21:00 +8°C° 0 mm 1 mps 687 mmHg 40%
    22:00 +8°C° 0 mm 1 mps 687 mmHg 41%
    23:00 +8°C° 0 mm 1 mps 688 mmHg 41%

    Day after tomorrow, 10 December, Tuesday

    Time Temperature Precipitation Wind Pressure Humidity
    00:00 +7°C° 0 mm 2 mps 688 mmHg 41%
    01:00 +7°C° 0 mm 2 mps 688 mmHg 41%
    02:00 +7°C° 0 mm 2 mps 688 mmHg 41%
    03:00 +7°C° 0 mm 2 mps 688 mmHg 43%
    04:00 +6°C° 0 mm 2 mps 688 mmHg 45%
    05:00 +6°C° 0 mm 2 mps 688 mmHg 47%
    06:00 +6°C° 0 mm 2 mps 688 mmHg 48%
    07:00 +6°C° 0 mm 2 mps 688 mmHg 49%
    08:00 +6°C° 0 mm 2 mps 689 mmHg 49%
    09:00 +8°C° 0 mm 1 mps 689 mmHg 47%
    10:00 +10°C° 0 mm 1 mps 690 mmHg 45%
    11:00 +10°C° 0 mm 0 mps 690 mmHg 43%
    12:00 +11°C° 0 mm 0 mps 690 mmHg 42%
    13:00 +11°C° 0 mm 0 mps 690 mmHg 40%
    14:00 +12°C° 0 mm 0 mps 690 mmHg 39%
    15:00 +11°C° 0 mm 1 mps 690 mmHg 44%
    16:00 +10°C° 0 mm 1 mps 689 mmHg 49%
    17:00 +9°C° 0 mm 1 mps 689 mmHg 54%
    18:00 +9°C° 0 mm 1 mps 689 mmHg 56%
    19:00 +8°C° 0 mm 1 mps 689 mmHg 57%
    20:00 +8°C° 0 mm 1 mps 689 mmHg 59%
    21:00 +8°C° 0 mm 1 mps 689 mmHg 60%
    22:00 +7°C° 0 mm 0 mps 689 mmHg 60%
    23:00 +6°C° 0 mm 0 mps 689 mmHg 61%

    11 December, Wednesday

    Time Temperature Precipitation Wind Pressure Humidity
    00:00 +6°C° 0 mm 0 mps 689 mmHg 63%
    01:00 +6°C° 0 mm 0 mps 689 mmHg 64%
    02:00 +6°C° 0 mm 0 mps 688 mmHg 66%
    03:00 +5°C° 0 mm 0 mps 688 mmHg 67%
    04:00 +5°C° 0 mm 0 mps 688 mmHg 68%
    05:00 +5°C° 0 mm 0 mps 688 mmHg 68%
    06:00 +5°C° 0 mm 0 mps 688 mmHg 69%
    07:00 +5°C° 0 mm 0 mps 688 mmHg 70%
    08:00 +5°C° 0 mm 0 mps 689 mmHg 71%
    09:00 +6°C° 0 mm 0 mps 689 mmHg 68%
    10:00 +7°C° 0 mm 0 mps 689 mmHg 65%
    11:00 +8°C° 0 mm 0 mps 689 mmHg 62%
    12:00 +9°C° 0 mm 0 mps 689 mmHg 61%
    13:00 +9°C° 0 mm 0 mps 688 mmHg 61%
    14:00 +9°C° 0 mm 0 mps 688 mmHg 60%
    15:00 +9°C° 0 mm 1 mps 688 mmHg 63%
    16:00 +8°C° 0 mm 1 mps 687 mmHg 66%
    17:00 +7°C° 0 mm 1 mps 687 mmHg 69%
    18:00 +7°C° 0 mm 1 mps 687 mmHg 69%
    19:00 +6°C° 0 mm 1 mps 687 mmHg 68%
    20:00 +6°C° 0 mm 1 mps 687 mmHg 67%
    21:00 +6°C° 0 mm 1 mps 687 mmHg 66%
    22:00 +6°C° 0 mm 1 mps 686 mmHg 64%
    23:00 +5°C° 0 mm 1 mps 686 mmHg 62%

    12 December, Thursday

    Time Temperature Precipitation Wind Pressure Humidity
    00:00 +5°C° 0 mm 1 mps 686 mmHg 61%
    01:00 +5°C° 0 mm 1 mps 686 mmHg 59%
    02:00 +5°C° 0 mm 1 mps 686 mmHg 58%
    03:00 +5°C° 0 mm 1 mps 685 mmHg 57%
    04:00 +5°C° 0 mm 1 mps 685 mmHg 56%
    05:00 +5°C° 0 mm 1 mps 685 mmHg 55%
    06:00 +5°C° 0 mm 1 mps 685 mmHg 54%
    07:00 +5°C° 0 mm 1 mps 685 mmHg 53%
    08:00 +4°C° 0 mm 0 mps 685 mmHg 52%
    09:00 +6°C° 0 mm 1 mps 686 mmHg 51%
    10:00 +7°C° 0 mm 1 mps 686 mmHg 50%
    11:00 +9°C° 0 mm 1 mps 686 mmHg 49%
    12:00 +9°C° 0 mm 1 mps 686 mmHg 51%
    13:00 +9°C° 0 mm 1 mps 686 mmHg 53%
    14:00 +9°C° 0 mm 1 mps 686 mmHg 55%
    15:00 +8°C° 0 mm 1 mps 686 mmHg 61%
    16:00 +6°C° 0 mm 0 mps 685 mmHg 67%
    17:00 +5°C° 0 mm 0 mps 685 mmHg 73%
    18:00 +5°C° 0 mm 0 mps 686 mmHg 73%
    19:00 +4°C° 0 mm 0 mps 686 mmHg 73%
    20:00 +4°C° 0 mm 0 mps 686 mmHg 73%
    21:00 +4°C° 0 mm 0 mps 686 mmHg 73%
    22:00 +4°C° 0 mm 0 mps 686 mmHg 73%
    23:00 +3°C° 0 mm 0 mps 686 mmHg 72%

    13 December, Friday

    Time Temperature Precipitation Wind Pressure Humidity
    00:00 +3°C° 0 mm 0 mps 686 mmHg 73%
    01:00 +3°C° 0 mm 0 mps 686 mmHg 73%
    02:00 +3°C° 0 mm 0 mps 686 mmHg 74%
    03:00 +3°C° 0 mm 0 mps 686 mmHg 75%
    04:00 +2°C° 0 mm 0 mps 686 mmHg 77%
    05:00 +2°C° 0 mm 0 mps 686 mmHg 78%
    06:00 +2°C° 0 mm 0 mps 686 mmHg 78%
    07:00 +2°C° 0 mm 0 mps 686 mmHg 78%
    08:00 +2°C° 0 mm 0 mps 687 mmHg 77%
    09:00 +3°C° 0 mm 0 mps 687 mmHg 76%
    10:00 +4°C° 0 mm 0 mps 687 mmHg 74%
    11:00 +5°C° 0 mm 0 mps 688 mmHg 72%
    12:00 +6°C° 0 mm 1 mps 688 mmHg 76%
    13:00 +6°C° 0 mm 1 mps 688 mmHg 80%
    14:00 +6°C° 0 mm 1 mps 687 mmHg 83%
    15:00 +6°C° 0 mm 1 mps 688 mmHg 87%
    16:00 +4°C° 0 mm 0 mps 688 mmHg 91%
    17:00 +4°C° 0 mm 0 mps 688 mmHg 94%
    18:00 +4°C° 0.1 mm 0 mps 688 mmHg 94%
    19:00 +5°C° 0.1 mm 1 mps 688 mmHg 93%
    20:00 +5°C° 0.1 mm 1 mps 688 mmHg 93%
    21:00 +4°C° 0 mm 1 mps 688 mmHg 91%
    22:00 +4°C° 0 mm 1 mps 688 mmHg 90%
    23:00 +4°C° 0 mm 1 mps 688 mmHg 89%
    Show more